Regional Weather Roundup
Issued by NWS

Home | Current Version | Previous Version | Text Only | Print | Product List | Glossary Off
Versions: 1 2 3 4 5 6 7 8 9 10 11 12 13 14 15 16 17 18 19 20 21 22 23 24 25 26 27 28 29 30 31 32 33 34 35 36 37 38 39 40 41 42 43 44 45 46 47 48 49 50

616
ASUS45 KCYS 262110
RWRWY

WYOMING REGIONAL WEATHER ROUNDUP
NATIONAL WEATHER SERVICE CHEYENNE WY
300 PM MDT FRI AUG 26 2016

NOTE:  "FAIR" INDICATES FEW OR NO CLOUDS BELOW 12,000 FEET
WITH NO SIGNIFICANT WEATHER AND/OR OBSTRUCTIONS TO VISIBILITY.

WYZ001-262200-
YELLOWSTONE NATIONAL PARK

CITY           SKY/WX    TMP DP  RH WIND       PRES   REMARKS
LK YELLOWSTONE   N/A     55  34  45 VRB5      30.18F
W YELLOWSTONE  NOT AVBL

$$
WYZ002>013-054>058-071-098>099-262200-
NORTHERN WYOMING

CITY           SKY/WX    TMP DP  RH WIND       PRES   REMARKS
JACKSON        MOSUNNY   70  30  23 SW10      30.09F
CODY           FAIR      64  43  45 E5        30.05F
GREYBULL       FAIR      71  39  31 VRB5      30.01F
WORLAND        CLOUDY    68  41  37 E6        30.02F
SHERIDAN       FAIR      74  42  31 NE6       30.03F
BUFFALO        FAIR      69  38  32 W6        30.08F
GILLETTE       FAIR      71  40  32 S5        30.02F
HULETT         MOCLDY    70  41  35 NW6       30.02F
NEWCASTLE      FAIR      68  46  45 SW9       30.07F

$$
WYZ014>020-022>026-101>103-262200-
CENTRAL WYOMING

CITY           SKY/WX    TMP DP  RH WIND       PRES   REMARKS
BIG PINEY      FAIR      68  32  26 MISG      30.13F
PINEDALE       CLOUDY    64  28  25 NW12      30.15F
DUBOIS         LGT RAIN  57  39  51 E3        30.13F
LANDER         LGT RAIN  68  44  42 SE7       30.04F
RIVERTON       FAIR      69  42  37 NE5       30.05F
CASPER         FAIR      72  40  31 W9        30.06F
DOUGLAS        FAIR      75  41  29 NW13G22   30.06F

$$
WYZ021-027>030-104>119-262200-
SOUTHERN WYOMING

CITY           SKY/WX    TMP DP  RH WIND       PRES   REMARKS
EVANSTON       FAIR      73  30  20 W21G32    30.13F
FORT BRIDGER   CLOUDY    67  34  29 SE9       30.16F
ROCK SPRINGS   PTSUNNY   73  26  17 NW9       30.11F
DIXON          FAIR      73  28  18 W8        30.15F
RAWLINS        FAIR      71  22  15 VRB6      30.13F
SARATOGA       FAIR      70  27  19 W14G25    30.16F
LARAMIE        FAIR      67  35  30 N10       30.15F
CHEYENNE       PTSUNNY   61  50  67 E10       30.12F
TORRINGTON     PTSUNNY   74  46  36 NE7G18    30.02F
PINE BLUFFS    CLOUDY    70  46  43 E7        30.08S

$$




USA.gov is the U.S. government's official web portal to all federal, state and local government web resources and services.